Weather History for KMCW - April, 2014

Change the Weather History Date:

Tuesday, April 29, 2014

  Actual Average Record
Temperature  
Mean Temperature 38 °F 52 °F  
Max Temperature 43 °F 65 °F 91 °F (2007)
Min Temperature 33 °F 40 °F 22 °F (1958)
Degree Days  
Heating Degree Days 27 13  
Month to date heating degree days 595 543  
Since 1 July heating degree days 8335 7388  
Cooling Degree Days 0 0  
Month to date cooling degree days 0 0  
Year to date cooling degree days 0 0  
Moisture  
Dew Point 37 °F    
Average Humidity 95    
Maximum Humidity 100    
Minimum Humidity 89    
Precipitation  
Precipitation 0.33 in 0.14 in 1.83 in (1984)
Month to date precipitation 7.30 3.61  
Year to date precipitation 11.53 7.66  
Snow  
Snow T in 0.00 in 13.00 in (1917)
Month to date snowfall 5.0 2.7  
Since 1 July snowfall 58.0 41.2  
Snow Depth 0.00 in    
Sea Level Pressure  
Sea Level Pressure 29.60 in    
Wind  
Wind Speed 16 mph (NNE)    
Max Wind Speed 22 mph    
Max Gust Speed 28 mph    
Visibility 6 miles    
Events Rain , Snow    
T = Trace of Precipitation, MM = Missing Value Source: NWS Daily Summary

Daily Weather History Graph

Daily Weather History Graph

Search for Another Location

Airport or City:

Trip Planner

Search our weather history database for the weather conditions in past years. The results will help you decide how hot, cold, wet, or windy it might be!

Date:

Astronomy

Apr. 29, 2014 Rise Set
Actual Time 6:09 AM CDT 8:12 PM CDT
Civil Twilight 5:38 AM CDT 8:43 PM CDT
Nautical Twilight 5:00 AM CDT 9:21 PM CDT
Astronomical Twilight 4:19 AM CDT 10:03 PM CDT
Moon 6:28 AM CDT (4/29) 8:53 PM CDT (4/29)
Length of Visible Light 15h 04m
Length of Day
14h 02m
New Moon, 0% of the Moon is Illuminated
Apr 29
New Moon
May 6
First Quarter
May 14
Full
May 21
Last Quarter
May 28
New

Hourly Weather History & Observations

Time (CDT) Temp. Windchill Dew Point Humidity Pressure Visibility Wind Dir Wind Speed Gust Speed Precip Events Conditions
12:10 AM 44.1 °F 35.4 °F 42.1 °F 93% 29.50 in 4.0 mi ENE 21.9 mph - 0.04 in Rain Rain
12:53 AM 43.0 °F 34.2 °F 42.1 °F 97% 29.50 in 5.0 mi ENE 20.7 mph 28.8 mph 0.14 in Rain Rain
1:53 AM 43.0 °F 34.0 °F 42.1 °F 97% 29.50 in 7.0 mi ENE 21.9 mph - 0.02 in Rain Light Rain
2:53 AM 43.0 °F 34.5 °F 42.1 °F 97% 29.49 in 6.0 mi ENE 19.6 mph - 0.02 in   Overcast
3:53 AM 43.0 °F 34.8 °F 42.1 °F 97% 29.49 in 7.0 mi ENE 18.4 mph - N/A   Overcast
4:53 AM 42.1 °F 33.9 °F 41.0 °F 96% 29.50 in 10.0 mi ENE 17.3 mph - N/A   Overcast
5:53 AM 42.1 °F 34.2 °F 41.0 °F 96% 29.50 in 6.0 mi NE 16.1 mph - N/A   Overcast
6:53 AM 42.1 °F 33.6 °F 41.0 °F 96% 29.50 in 9.0 mi ENE 18.4 mph 24.2 mph N/A   Overcast
7:53 AM 42.1 °F 35.2 °F 39.9 °F 92% 29.52 in 10.0 mi ENE 12.7 mph - N/A   Overcast
8:53 AM 41.0 °F 33.5 °F 39.9 °F 96% 29.53 in 6.0 mi NE 13.8 mph - N/A   Overcast
9:53 AM 41.0 °F 32.8 °F 39.2 °F 93% 29.53 in 2.5 mi NE 16.1 mph - N/A   Overcast
10:53 AM 41.0 °F 32.8 °F 39.9 °F 96% 29.54 in 2.0 mi NNE 16.1 mph - 0.00 in Rain Light Rain
11:30 AM 39.9 °F 31.1 °F 39.0 °F 97% 29.55 in 2.0 mi NNE 17.3 mph - 0.00 in Rain Light Rain
11:47 AM 39.2 °F 30.5 °F 37.4 °F 93% 29.55 in 3.0 mi NNE 16.1 mph - 0.00 in Rain Light Rain
11:53 AM 39.0 °F 29.6 °F 37.9 °F 96% 29.56 in 4.0 mi NNE 18.4 mph - 0.00 in Rain Light Rain
12:53 PM 37.0 °F 27.4 °F 36.0 °F 96% 29.57 in 7.0 mi North 17.3 mph - 0.02 in Rain Light Rain
1:53 PM 37.0 °F 27.0 °F 36.0 °F 96% 29.59 in 10.0 mi North 18.4 mph - 0.03 in Rain Light Rain
2:53 PM 37.0 °F 27.4 °F 36.0 °F 96% 29.61 in 9.0 mi North 17.3 mph - 0.03 in Rain Light Rain
3:53 PM 37.4 °F 28.2 °F 35.6 °F 93% 29.61 in 10.0 mi North 16.1 mph - N/A Rain Light Rain
4:53 PM 35.6 °F 26.2 °F 35.6 °F 100% 29.63 in 6.0 mi North 15.0 mph - N/A Rain Light Rain
5:53 PM 37.0 °F 28.5 °F 36.0 °F 96% 29.66 in 10.0 mi North 13.8 mph - 0.04 in Rain Light Rain
6:16 PM 37.9 °F 28.5 °F 36.0 °F 93% 29.66 in 7.0 mi North 17.3 mph - 0.01 in Rain Light Rain
6:39 PM 37.0 °F 26.7 °F 36.0 °F 96% 29.67 in 5.0 mi North 19.6 mph - 0.02 in Rain Light Rain
6:49 PM 37.4 °F 27.5 °F 35.6 °F 93% 29.67 in 6.0 mi North 18.4 mph - 0.03 in Rain Light Rain
6:53 PM 37.0 °F 27.4 °F 35.1 °F 93% 29.69 in 6.0 mi North 17.3 mph - 0.03 in Rain Light Rain
7:00 PM 36.0 °F 26.0 °F 35.1 °F 97% 29.68 in 7.0 mi NNW 17.3 mph - 0.00 in Rain Light Rain
7:53 PM 35.1 °F 25.5 °F 34.0 °F 96% 29.71 in 9.0 mi North 15.0 mph - 0.03 in Rain Light Rain
8:53 PM 34.0 °F 24.6 °F 33.1 °F 96% 29.72 in 5.0 mi NNW 13.8 mph - 0.01 in Snow Light Snow
9:03 PM 34.0 °F 24.2 °F 33.1 °F 96% 29.71 in 6.0 mi NNW 15.0 mph - 0.00 in Snow Light Snow
9:13 PM 34.0 °F 24.2 °F 33.1 °F 96% 29.71 in 6.0 mi NNW 15.0 mph - 0.00 in Snow Light Snow
9:53 PM 33.8 °F 23.9 °F 33.8 °F 100% 29.72 in 5.0 mi NNW 15.0 mph - N/A Snow Light Snow
10:36 PM 33.1 °F 23.4 °F 33.1 °F 100% 29.72 in 2.5 mi NNW 13.8 mph - 0.01 in Snow Light Snow
10:53 PM 33.1 °F 23.4 °F 33.1 °F 100% 29.73 in 3.0 mi NNW 13.8 mph - 0.01 in Snow Light Snow
11:53 PM 33.1 °F 23.4 °F 33.1 °F 100% 29.73 in 3.0 mi NNW 13.8 mph - 0.00 in Snow Light Snow